Greensboro, GA

3:56 PM EDT on March 27, 2017 (GMT -0400)
Greensboro

Weather History for K3J7 - March, 2013

Change the Weather History Date:

Saturday, March 30, 2013

  Actual Average (KDBN) Record (KDBN)
Temperature  
Mean Temperature 60 °F -  
Max Temperature 73 °F 75 °F 89 °F (1938)
Min Temperature 46 °F 49 °F 33 °F (1941)
Degree Days  
Heating Degree Days 6    
Growing Degree Days 10 (Base 50)    
Moisture  
Dew Point 41 °F    
Average Humidity 51    
Maximum Humidity 100    
Minimum Humidity 33    
Precipitation  
Precipitation 0.00 in - - ()
Sea Level Pressure  
Sea Level Pressure 30.09 in    
Wind  
Wind Speed 3 mph (SW)    
Max Wind Speed 10 mph    
Max Gust Speed 16 mph    
Visibility 10 miles    
Events Rain    
Averages and records for this station are not official NWS values.
T = Trace of Precipitation, MM = Missing Value Source: NWS Daily Summary

Daily Weather History Graph

Daily Weather History Graph

Search for Another Location

Airport or City:

Trip Planner

Search our weather history database for the weather conditions in past years. The results will help you decide how hot, cold, wet, or windy it might be!

Date:

Astronomy

Mar. 30, 2013 Rise Set
Actual Time 7:22 AM EDT 7:51 PM EDT
Civil Twilight 6:57 AM EDT 8:16 PM EDT
Nautical Twilight 6:28 AM EDT 8:46 PM EDT
Astronomical Twilight 5:58 AM EDT 9:16 PM EDT
Moon 11:45 PM EDT (3/30) 9:27 AM EDT (3/30)
Length of Visible Light 13h 19m
Length of Day
12h 29m
Waning Gibbous, 86% of the Moon is Illuminated
Mar 30
Waning Gibbous
Apr 3
Last Quarter
Apr 10
New
Apr 18
First Quarter
Apr 25
Full

Hourly Weather History & Observations

Time (EDT) Temp. Windchill Dew Point Humidity Pressure Visibility Wind Dir Wind Speed Gust Speed Precip Events Conditions
12:15 AM 55.4 °F - 32.0 °F 41% 30.18 in 10.0 mi NE 3.5 mph - N/A   Clear
12:35 AM 55.4 °F - 32.0 °F 41% 30.17 in 10.0 mi ENE 3.5 mph - N/A   Mostly Cloudy
12:55 AM 53.6 °F - 32.0 °F 44% 30.17 in 10.0 mi East 4.6 mph - N/A   Overcast
1:15 AM 53.6 °F - 32.0 °F 44% 30.16 in 10.0 mi East 5.8 mph - N/A   Overcast
1:35 AM 55.4 °F - 33.8 °F 44% 30.16 in 10.0 mi East 3.5 mph - N/A   Overcast
1:55 AM 55.4 °F - 33.8 °F 44% 30.15 in 10.0 mi East 5.8 mph - N/A   Overcast
2:15 AM 55.4 °F - 33.8 °F 44% 30.15 in 10.0 mi ESE 8.1 mph - N/A   Overcast
2:35 AM 55.4 °F - 33.8 °F 44% 30.14 in 10.0 mi East 5.8 mph - N/A   Overcast
2:55 AM 53.6 °F - 33.8 °F 47% 30.13 in 10.0 mi East 3.5 mph - N/A   Overcast
3:15 AM 53.6 °F - 33.8 °F 47% 30.13 in 10.0 mi Calm Calm - N/A   Overcast
3:35 AM 53.6 °F - 33.8 °F 47% 30.13 in 10.0 mi Calm Calm - N/A   Overcast
3:55 AM 53.6 °F - 33.8 °F 47% 30.12 in 10.0 mi Calm Calm - N/A   Overcast
4:15 AM 51.8 °F - 37.4 °F 58% 30.11 in 10.0 mi Calm Calm - N/A   Overcast
4:35 AM 51.8 °F - 35.6 °F 54% 30.11 in 10.0 mi Calm Calm - N/A   Overcast
4:55 AM 51.8 °F - 37.4 °F 58% 30.10 in 10.0 mi Calm Calm - N/A   Overcast
5:15 AM 51.8 °F - 35.6 °F 54% 30.10 in 10.0 mi Calm Calm - N/A   Overcast
5:35 AM 51.8 °F - 37.4 °F 58% 30.11 in 10.0 mi Calm Calm - N/A   Overcast
5:55 AM 50.0 °F - 37.4 °F 62% 30.11 in 10.0 mi Calm Calm - N/A   Overcast
6:15 AM 50.0 °F - 37.4 °F 62% 30.12 in 10.0 mi North 3.5 mph - N/A   Overcast
6:35 AM 48.2 °F - 37.4 °F 66% 30.12 in 10.0 mi Calm Calm - N/A   Mostly Cloudy
6:55 AM 48.2 °F - 37.4 °F 66% 30.12 in 10.0 mi Calm Calm - N/A   Mostly Cloudy
7:15 AM 46.4 °F - 37.4 °F 71% 30.13 in 10.0 mi Calm Calm - N/A   Mostly Cloudy
7:35 AM 46.4 °F - 37.4 °F 71% 30.14 in 10.0 mi Calm Calm - N/A   Mostly Cloudy
7:55 AM 46.4 °F 45.2 °F 37.4 °F 71% 30.15 in 10.0 mi North 3.5 mph - N/A   Mostly Cloudy
8:15 AM 48.2 °F - 37.4 °F 66% 30.15 in 10.0 mi Calm Calm - N/A   Scattered Clouds
8:35 AM 50.0 °F - 39.2 °F 66% 30.15 in 10.0 mi Calm Calm - N/A   Clear
8:55 AM 51.8 °F - 39.2 °F 62% 30.15 in - Calm Calm - N/A   Unknown
9:15 AM 51.8 °F - 39.2 °F 62% 30.16 in 10.0 mi Calm Calm - N/A   Scattered Clouds
9:35 AM 55.4 °F - 41.0 °F 58% 30.16 in 10.0 mi Calm Calm - N/A   Scattered Clouds
9:55 AM 55.4 °F - 41.0 °F 58% 30.16 in 10.0 mi Calm Calm - N/A   Clear
10:15 AM 57.2 °F - 41.0 °F 55% 30.16 in 10.0 mi Calm Calm - N/A   Mostly Cloudy
10:35 AM 57.2 °F - 41.0 °F 55% 30.17 in 10.0 mi NNW 3.5 mph - N/A   Mostly Cloudy
10:55 AM 59.0 °F - 41.0 °F 51% 30.16 in 10.0 mi Calm Calm - N/A   Scattered Clouds
11:15 AM 60.8 °F - 41.0 °F 48% 30.16 in 10.0 mi WNW 3.5 mph - N/A   Scattered Clouds
11:35 AM 62.6 °F - 41.0 °F 45% 30.15 in 10.0 mi NNE 4.6 mph - N/A   Scattered Clouds
11:55 AM 62.6 °F - 41.0 °F 45% 30.15 in 10.0 mi Calm Calm - N/A   Clear
12:15 PM 64.4 °F - 41.0 °F 42% 30.15 in 10.0 mi SW 5.8 mph - N/A   Clear
12:35 PM 64.4 °F - 41.0 °F 42% 30.14 in 10.0 mi West 5.8 mph - N/A   Scattered Clouds
12:55 PM 66.2 °F - 41.0 °F 40% 30.13 in 10.0 mi Calm Calm - N/A   Scattered Clouds
1:15 PM 68.0 °F - 42.8 °F 40% 30.12 in 10.0 mi Calm Calm - N/A   Clear
1:35 PM 68.0 °F - 42.8 °F 40% 30.11 in 10.0 mi WSW 5.8 mph - N/A   Clear
1:55 PM 69.8 °F - 42.8 °F 38% 30.10 in 10.0 mi WSW 10.4 mph - N/A   Clear
2:15 PM 69.8 °F - 42.8 °F 38% 30.10 in 10.0 mi WSW 5.8 mph - N/A   Clear
2:35 PM 69.8 °F - 42.8 °F 38% 30.09 in 10.0 mi SW 4.6 mph - N/A   Scattered Clouds
2:55 PM 69.8 °F - 42.8 °F 38% 30.08 in 10.0 mi West 8.1 mph - N/A   Scattered Clouds
3:15 PM 71.6 °F - 42.8 °F 35% 30.07 in 10.0 mi South 6.9 mph - N/A   Scattered Clouds
3:35 PM 71.6 °F - 42.8 °F 35% 30.07 in 10.0 mi SSW 8.1 mph - N/A   Scattered Clouds
3:55 PM 69.8 °F - 42.8 °F 38% 30.05 in 10.0 mi WSW 5.8 mph - N/A   Scattered Clouds
4:15 PM 73.4 °F - 42.8 °F 33% 30.05 in 10.0 mi SW 6.9 mph 16.1 mph N/A   Scattered Clouds
4:35 PM 71.6 °F - 42.8 °F 35% 30.04 in 10.0 mi WSW 8.1 mph - N/A   Scattered Clouds
4:55 PM 73.4 °F - 42.8 °F 33% 30.03 in 10.0 mi WSW 4.6 mph - N/A   Clear
5:15 PM 73.4 °F - 42.8 °F 33% 30.02 in 10.0 mi WSW 5.8 mph - N/A   Clear
5:35 PM 73.4 °F - 42.8 °F 33% 30.02 in 10.0 mi SW 8.1 mph - N/A   Clear
5:55 PM 73.4 °F - 42.8 °F 33% 30.01 in 10.0 mi WNW 4.6 mph - N/A   Scattered Clouds
6:15 PM 71.6 °F - 42.8 °F 35% 30.01 in 10.0 mi WSW 4.6 mph - N/A   Clear
6:35 PM 71.6 °F - 42.8 °F 35% 30.01 in 10.0 mi Calm Calm - N/A   Scattered Clouds
6:55 PM 71.6 °F - 42.8 °F 35% 30.01 in 10.0 mi Calm Calm - N/A   Mostly Cloudy
7:15 PM 69.8 °F - 44.6 °F 40% 30.01 in 10.0 mi Calm Calm - N/A   Overcast
7:35 PM 69.8 °F - 44.6 °F 40% 30.00 in 10.0 mi Calm Calm - N/A   Mostly Cloudy
7:55 PM 68.0 °F - 46.4 °F 46% 30.00 in 10.0 mi Calm Calm - N/A   Overcast
8:15 PM 68.0 °F - 44.6 °F 43% 30.00 in 10.0 mi SSE 4.6 mph - N/A   Overcast
8:35 PM 68.0 °F - 46.4 °F 46% 30.00 in 10.0 mi South 3.5 mph - N/A   Overcast
8:55 PM 68.0 °F - 46.4 °F 46% 30.00 in 10.0 mi SSE 3.5 mph - N/A   Overcast
9:15 PM 66.2 °F - 46.4 °F 49% 30.01 in 10.0 mi Calm Calm - N/A   Light Drizzle
9:35 PM 64.4 °F - 50.0 °F 59% 30.02 in 10.0 mi SSW 3.5 mph - N/A Rain Light Rain
9:55 PM 62.6 °F - 51.8 °F 68% 30.04 in 5.0 mi WSW 6.9 mph - N/A Rain Rain
10:15 PM 60.8 °F - 53.6 °F 77% 30.04 in 10.0 mi Calm Calm - N/A Rain Rain
10:35 PM 59.0 °F - 53.6 °F 82% 30.04 in 7.0 mi Calm Calm - N/A Rain Rain
10:55 PM 57.2 °F - 55.4 °F 94% 30.03 in 5.0 mi North 3.5 mph - N/A Rain Light Rain
11:35 PM 57.2 °F - 55.4 °F 94% 30.02 in 7.0 mi Calm Calm - N/A Rain Rain
11:55 PM 55.4 °F - 55.4 °F 100% 30.02 in 7.0 mi Calm Calm - N/A Rain Light Rain